Total_Precipitation_Accumulation
1.08 1.10 1.09 0.96 0.83 0.78 0.72 0.67 0.67 0.71 0.76 0.75 0.80 0.91 0.95 0.97 1.01 1.01 1.05 1.11 1.19 1.32 1.39 1.54 1.77 1.97 2.06 2.04 2.09 2.14 2.15 2.01 1.75 1.59 1.35 1.31 1.42 1.36 1.37 1.33 1.44 1.48 1.23
1.06 1.04 1.01 0.94 0.83 0.81 0.73 0.64 0.66 0.70 0.72 0.72 0.79 0.85 0.86 0.93 0.96 0.93 0.94 1.01 1.12 1.22 1.24 1.27 1.40 1.66 1.83 1.92 2.00 2.02 2.09 2.05 1.86 1.82 1.72 1.48 1.40 1.37 1.48 1.58 1.53 1.51 1.43
1.09 1.01 1.00 0.96 0.94 0.95 0.82 0.71 0.70 0.78 0.89 0.90 0.89 0.92 0.89 0.92 0.93 0.91 0.93 0.98 1.01 1.07 1.12 1.13 1.25 1.37 1.52 1.62 1.71 1.82 1.89 2.01 1.99 1.82 1.86 1.78 1.54 1.49 1.50 1.60 1.68 1.79 1.64
1.25 1.13 1.08 1.08 1.11 1.08 0.91 0.82 0.75 0.75 0.79 0.80 0.88 0.94 1.01 1.06 1.04 0.99 0.99 1.01 0.96 0.98 1.04 1.11 1.16 1.19 1.36 1.58 1.68 1.76 1.80 1.90 2.02 1.96 1.89 1.84 1.69 1.61 1.59 1.63 1.80 1.92 1.90
1.25 1.11 1.01 0.98 0.96 0.92 0.91 0.94 0.85 0.72 0.68 0.68 0.77 0.85 0.94 1.03 1.08 1.08 0.95 0.86 0.87 0.93 0.93 0.92 1.01 1.12 1.22 1.43 1.53 1.76 1.80 1.93 2.00 2.04 1.94 1.76 1.65 1.61 1.57 1.55 1.73 1.96 2.02
1.06 0.99 0.88 0.88 0.84 0.76 0.80 0.91 0.92 0.77 0.68 0.66 0.68 0.66 0.69 0.73 0.93 0.93 0.82 0.71 0.75 0.87 0.93 0.92 0.92 0.99 1.06 1.13 1.18 1.41 1.62 1.77 1.89 1.89 1.89 1.74 1.59 1.54 1.64 1.67 1.71 1.81 1.94
0.79 0.77 0.66 0.69 0.81 0.84 0.87 0.86 0.77 0.67 0.67 0.66 0.60 0.54 0.56 0.62 0.68 0.65 0.71 0.69 0.70 0.77 0.86 0.95 1.00 0.98 1.04 1.12 1.14 1.22 1.31 1.38 1.54 1.66 1.68 1.60 1.57 1.52 1.62 1.68 1.69 1.64 1.57
0.53 0.52 0.48 0.55 0.72 0.76 0.71 0.68 0.62 0.60 0.63 0.67 0.60 0.56 0.60 0.61 0.64 0.67 0.69 0.67 0.78 0.85 0.86 0.86 0.99 1.04 1.08 1.24 1.24 1.33 1.27 1.18 1.20 1.28 1.43 1.48 1.43 1.51 1.61 1.81 1.91 1.78 1.64
0.35 0.37 0.43 0.47 0.49 0.50 0.47 0.47 0.53 0.59 0.60 0.54 0.56 0.69 0.70 0.71 0.81 0.74 0.65 0.68 0.80 0.88 0.83 0.85 0.98 1.05 1.23 1.34 1.37 1.38 1.29 1.22 1.28 1.37 1.46 1.54 1.54 1.59 1.67 1.76 1.84 1.86 1.79
0.35 0.38 0.41 0.46 0.48 0.47 0.46 0.45 0.49 0.54 0.59 0.59 0.60 0.72 0.76 0.78 0.81 0.68 0.65 0.73 0.83 0.91 0.89 0.88 1.08 1.08 1.19 1.24 1.29 1.41 1.42 1.31 1.29 1.28 1.32 1.37 1.37 1.44 1.69 1.73 1.86 1.95 1.80
0.42 0.40 0.41 0.43 0.46 0.50 0.52 0.50 0.50 0.51 0.55 0.61 0.62 0.64 0.62 0.59 0.59 0.60 0.61 0.65 0.75 0.85 0.85 0.85 0.81 0.97 1.01 1.11 1.22 1.27 1.51 1.44 1.37 1.37 1.33 1.24 1.24 1.28 1.41 1.61 1.78 1.83 1.79
0.43 0.42 0.41 0.45 0.46 0.49 0.56 0.55 0.53 0.54 0.54 0.55 0.59 0.64 0.63 0.56 0.54 0.53 0.57 0.62 0.73 0.73 0.71 0.77 0.77 0.88 0.91 0.98 0.99 1.17 1.39 1.38 1.30 1.39 1.39 1.32 1.24 1.26 1.28 1.36 1.53 1.57 1.53
0.41 0.44 0.46 0.46 0.46 0.46 0.49 0.51 0.53 0.54 0.55 0.55 0.57 0.62 0.63 0.60 0.60 0.63 0.62 0.66 0.67 0.60 0.55 0.72 0.80 0.87 0.83 0.80 0.94 1.14 1.20 1.23 1.37 1.34 1.35 1.31 1.24 1.26 1.25 1.31 1.39 1.40 1.35
0.45 0.49 0.51 0.52 0.52 0.50 0.52 0.55 0.58 0.59 0.58 0.56 0.56 0.62 0.66 0.66 0.63 0.59 0.58 0.59 0.58 0.56 0.56 0.73 0.88 0.92 0.86 0.81 0.89 1.03 1.07 1.20 1.36 1.25 1.21 1.19 1.17 1.25 1.30 1.35 1.31 1.32 1.35
0.47 0.52 0.57 0.57 0.57 0.57 0.59 0.59 0.59 0.57 0.59 0.58 0.58 0.63 0.63 0.61 0.62 0.65 0.62 0.60 0.59 0.60 0.70 0.85 0.98 0.99 1.00 0.95 0.96 1.05 1.04 1.03 1.10 1.06 1.10 1.14 1.17 1.19 1.20 1.26 1.26 1.21 1.24
0.50 0.49 0.49 0.55 0.58 0.56 0.56 0.57 0.59 0.59 0.62 0.59 0.56 0.59 0.60 0.61 0.65 0.66 0.65 0.66 0.65 0.74 0.90 1.03 1.15 1.21 1.22 1.19 1.15 1.12 1.03 1.00 0.96 0.99 1.10 1.14 1.12 1.15 1.18 1.20 1.27 1.27 1.24
0.47 0.48 0.48 0.49 0.49 0.51 0.53 0.54 0.58 0.57 0.56 0.55 0.55 0.57 0.58 0.61 0.64 0.72 0.77 0.78 0.82 1.00 1.14 1.16 1.20 1.25 1.27 1.22 1.14 1.04 0.93 0.86 0.88 0.96 0.99 1.02 1.06 1.10 1.16 1.17 1.20 1.23 1.17
0.42 0.52 0.53 0.50 0.51 0.52 0.52 0.53 0.58 0.64 0.65 0.57 0.55 0.54 0.55 0.57 0.62 0.76 0.91 1.01 1.04 1.16 1.24 1.25 1.32 1.30 1.24 1.11 1.00 0.91 0.80 0.78 0.82 0.86 0.87 0.85 0.93 1.02 1.07 1.10 1.14 1.18 1.16
0.34 0.43 0.50 0.52 0.53 0.55 0.56 0.54 0.55 0.60 0.63 0.65 0.64 0.61 0.59 0.59 0.59 0.65 0.73 0.76 0.78 0.86 0.93 0.97 1.02 1.05 0.99 0.89 0.82 0.80 0.75 0.75 0.76 0.79 0.81 0.82 0.90 0.95 0.94 0.97 1.06 1.19 1.23
0.32 0.42 0.49 0.53 0.54 0.54 0.56 0.55 0.54 0.54 0.56 0.58 0.59 0.62 0.65 0.67 0.61 0.59 0.59 0.61 0.66 0.69 0.73 0.74 0.74 0.73 0.73 0.73 0.74 0.77 0.79 0.78 0.80 0.81 0.84 0.86 0.91 0.97 0.95 0.94 0.99 1.07 1.13
0.30 0.37 0.45 0.51 0.50 0.50 0.50 0.51 0.52 0.52 0.53 0.56 0.56 0.63 0.70 0.67 0.65 0.64 0.66 0.66 0.67 0.68 0.72 0.74 0.73 0.71 0.70 0.72 0.76 0.80 0.84 0.84 0.83 0.85 0.90 0.91 0.93 0.97 0.98 1.00 1.02 1.06 1.12
0.31 0.34 0.38 0.44 0.51 0.53 0.50 0.48 0.48 0.48 0.48 0.51 0.53 0.57 0.64 0.61 0.63 0.64 0.66 0.68 0.69 0.70 0.71 0.74 0.73 0.74 0.76 0.78 0.83 0.90 0.94 0.95 0.93 0.93 0.93 0.94 0.95 0.98 1.00 1.02 1.05 1.12 1.17
0.33 0.36 0.39 0.42 0.46 0.54 0.57 0.52 0.51 0.51 0.52 0.53 0.55 0.54 0.56 0.56 0.60 0.64 0.64 0.68 0.74 0.73 0.70 0.72 0.75 0.76 0.75 0.74 0.78 0.87 0.96 1.00 1.03 1.03 1.03 1.01 1.02 1.04 1.08 1.08 1.05 1.07 1.13
0.38 0.41 0.41 0.42 0.43 0.45 0.49 0.53 0.57 0.57 0.56 0.56 0.57 0.57 0.56 0.57 0.60 0.63 0.63 0.64 0.69 0.72 0.72 0.74 0.75 0.76 0.77 0.79 0.83 0.87 0.92 1.00 1.07 1.13 1.16 1.16 1.12 1.10 1.12 1.13 1.11 1.11 1.18
0.38 0.42 0.43 0.45 0.46 0.48 0.51 0.53 0.58 0.64 0.62 0.62 0.63 0.63 0.61 0.60 0.62 0.68 0.70 0.67 0.67 0.69 0.70 0.73 0.74 0.75 0.79 0.81 0.84 0.89 1.06 1.12 1.10 1.12 1.14 1.17 1.12 1.11 1.14 1.15 1.15 1.17 1.22
0.36 0.41 0.45 0.47 0.50 0.54 0.56 0.55 0.58 0.63 0.66 0.66 0.65 0.65 0.65 0.66 0.66 0.68 0.73 0.76 0.76 0.75 0.76 0.81 0.81 0.76 0.73 0.72 0.74 0.82 0.94 0.97 1.00 1.07 1.10 1.15 1.18 1.16 1.18 1.22 1.19 1.20 1.24